Weather History for Kahului, HI

Change the Weather History Date:

Saturday, June 29, 2013

  Actual Average Record
Temperature  
Mean Temperature 79 °F 79 °F  
Max Temperature 88 °F 87 °F 93 °F (1980)
Min Temperature 69 °F 70 °F 61 °F (1971)
Degree Days  
Heating Degree Days 0 0  
Month to date heating degree days 0 0  
Since 1 June heating degree days 0 0  
Since 1 July heating degree days 0 0  
Cooling Degree Days 14 14  
Month to date cooling degree days 426 373  
Year to date cooling degree days 1810 1632  
Since 1 June cooling degree days 426 373  
Growing Degree Days 26 (Base 50)    
Moisture  
Dew Point 68 °F    
Average Humidity 71    
Maximum Humidity 87    
Minimum Humidity 55    
Precipitation  
Precipitation 0.01 in 0.01 in 2.22 in (1967)
Month to date precipitation 0.27 0.19  
Year to date precipitation 7.26 9.69  
Snow  
Snow 0.00 in - - ()
Month to date snowfall 0.0  
Since 1 June snowfall 0.0  
Since 1 July snowfall 0.0  
Snow Depth 0.00 in    
Sea Level Pressure  
Sea Level Pressure 30.00 in    
Wind  
Wind Speed 12 mph (NE)    
Max Wind Speed 24 mph    
Max Gust Speed 31 mph    
Visibility 10 miles    
Events Rain    
T = Trace of Precipitation, MM = Missing Value Source: NWS Daily Summary

Daily Weather History Graph

Daily Weather History Graph

Search for Another Location

Airport:

Trip Planner

Search our weather history database for the weather conditions in past years. The results will help you decide how hot, cold, wet, or windy it might be!

Date:

Astronomy

Jun. 29, 2013 Rise Set
Actual Time 5:47 AM HST 7:10 PM HST
Civil Twilight 5:22 AM HST 7:35 PM HST
Nautical Twilight 4:53 AM HST 8:05 PM HST
Astronomical Twilight 4:22 AM HST 8:35 PM HST
Moon No Moon Rise 12:13 PM HST (6/29)
Length of Visible Light 14h 12m
Length of Day
13h 23m
Waning Gibbous, 53% of the Moon is Illuminated
Jun 29
Waning Gibbous
Jun 29
Last Quarter
Jul 7
New
Jul 15
First Quarter
Jul 22
Full

Hourly Weather History & Observations

Time (HST) Temp. Heat Index Dew Point Humidity Pressure Visibility Wind Dir Wind Speed Gust Speed Precip Events Conditions
12:54 AM 73.9 °F - 68.0 °F 82% 30.01 in 10.0 mi NE 10.4 mph - N/A   Scattered Clouds
1:54 AM 73.0 °F - 66.9 °F 81% 29.99 in 10.0 mi NNE 10.4 mph - N/A   Clear
2:54 AM 71.1 °F - 66.0 °F 84% 29.98 in 10.0 mi NE 8.1 mph - N/A   Clear
3:54 AM 69.1 °F - 61.0 °F 75% 29.97 in 10.0 mi NNE 4.6 mph - N/A   Clear
4:54 AM 71.1 °F - 64.9 °F 81% 29.98 in 10.0 mi North 6.9 mph - N/A   Clear
5:54 AM 73.0 °F - 64.9 °F 76% 29.99 in 10.0 mi NNE 6.9 mph - N/A   Partly Cloudy
6:54 AM 77.0 °F - 64.9 °F 66% 30.00 in 10.0 mi NE 12.7 mph - N/A   Scattered Clouds
7:54 AM 79.0 °F - 66.0 °F 64% 30.01 in 10.0 mi NE 12.7 mph - N/A   Partly Cloudy
8:54 AM 82.0 °F 84.9 °F 68.0 °F 62% 30.01 in 10.0 mi ENE 17.3 mph 21.9 mph N/A   Partly Cloudy
9:54 AM 84.0 °F 87.0 °F 68.0 °F 58% 30.01 in 10.0 mi ENE 17.3 mph 25.3 mph N/A   Scattered Clouds
10:54 AM 82.9 °F 85.0 °F 66.0 °F 56% 30.00 in 10.0 mi ENE 16.1 mph 21.9 mph N/A   Scattered Clouds
11:54 AM 86.0 °F 89.4 °F 68.0 °F 55% 29.99 in 10.0 mi East 12.7 mph 23.0 mph N/A   Scattered Clouds
12:54 PM 84.9 °F 88.8 °F 69.1 °F 59% 29.98 in 10.0 mi East 15.0 mph 21.9 mph 0.01 in   Scattered Clouds
1:54 PM 80.1 °F 83.8 °F 72.0 °F 76% 29.99 in 10.0 mi NE 16.1 mph 27.6 mph 0.00 in Rain Light Rain
2:54 PM 80.1 °F 83.8 °F 72.0 °F 76% 29.97 in 10.0 mi ENE 18.4 mph 25.3 mph 0.00 in   Scattered Clouds
3:54 PM 82.0 °F 86.3 °F 71.1 °F 69% 29.96 in 10.0 mi ENE 19.6 mph 29.9 mph N/A   Scattered Clouds
4:54 PM 81.0 °F 84.4 °F 70.0 °F 69% 29.97 in 10.0 mi ENE 18.4 mph 29.9 mph N/A   Scattered Clouds
5:54 PM 78.1 °F - 69.1 °F 74% 29.97 in 10.0 mi ENE 21.9 mph 28.8 mph N/A   Scattered Clouds
6:54 PM 77.0 °F - 68.0 °F 74% 29.99 in 10.0 mi ENE 17.3 mph 24.2 mph N/A   Mostly Cloudy
7:54 PM 73.9 °F - 70.0 °F 87% 30.01 in 10.0 mi ENE 17.3 mph 26.5 mph N/A   Scattered Clouds
8:54 PM 75.0 °F - 68.0 °F 79% 30.03 in 10.0 mi NE 12.7 mph 23.0 mph N/A   Overcast
9:54 PM 75.9 °F - 68.0 °F 76% 30.04 in 10.0 mi ENE 12.7 mph 17.3 mph N/A   Mostly Cloudy
10:54 PM 75.9 °F - 69.1 °F 79% 30.04 in 10.0 mi NNE 16.1 mph - N/A   Clear
11:54 PM 75.9 °F - 69.1 °F 79% 30.04 in 10.0 mi NE 9.2 mph - N/A   Mostly Cloudy